QPF
0.00 0.00 0.00 0.00 0.00 0.00 0.00 0.00 0.00 0.00 0.00 0.00 -0.00 0.00 0.00 0.00 0.00 0.00 0.00 0.00 0.00 0.00 0.00 -0.00 0.00 0.00 0.00 0.00 0.00 0.00 0.00 0.00 0.00 0.00 0.00 0.00 0.01 0.00 0.02 0.10 0.04 0.12 0.08 0.07 0.08 0.13 0.16 0.17 0.40 0.21 0.15 0.17 0.07 0.02 0.02 0.05 0.00 0.00 0.00 0.00 0.00 0.00 0.00
0.00 0.00 0.00 0.00 0.00 0.00 0.00 0.00 0.00 0.00 0.00 0.00 0.00 0.00 0.00 0.00 0.00 0.00 0.00 0.00 0.00 0.00 0.00 0.00 0.00 -0.00 0.00 -0.00 -0.00 0.00 -0.00 0.00 0.00 0.00 0.00 0.00 0.00 0.00 0.00 0.00 0.00 0.00 0.02 0.02 0.01 0.04 0.05 0.11 0.13 0.17 0.26 0.07 0.05 0.11 0.04 0.01 0.08 0.00 0.02 0.01 0.00 0.01 0.00
0.00 0.00 0.00 0.00 0.00 0.00 0.00 0.00 0.00 0.00 0.00 0.00 0.00 0.00 0.00 0.00 0.00 -0.00 0.00 0.00 0.00 0.00 0.00 0.00 0.00 0.00 0.00 -0.00 0.00 0.00 0.00 0.00 0.00 0.00 0.00 0.00 -0.00 0.00 0.00 0.00 0.00 0.00 0.00 0.00 0.00 0.00 0.00 0.01 0.02 0.06 0.28 0.15 0.26 0.09 0.18 0.11 0.13 0.06 0.06 0.03 0.01 0.01 0.02
0.00 0.00 0.00 0.00 0.00 0.00 0.00 0.00 0.00 0.00 0.00 0.00 0.00 0.00 0.00 0.00 0.00 0.00 0.00 0.00 0.00 0.00 0.00 0.00 0.00 0.00 0.00 0.00 0.00 -0.00 0.00 0.00 0.00 -0.00 -0.00 0.00 0.00 0.00 0.00 0.00 0.00 0.00 0.00 0.00 0.00 0.00 0.00 0.00 0.00 0.00 0.00 0.00 0.01 0.04 0.08 0.12 0.08 0.09 0.11 0.15 0.09 0.07 0.02
0.00 0.00 0.00 0.00 0.00 0.00 0.00 0.00 0.00 0.00 0.00 0.00 0.00 0.00 0.00 0.00 0.00 0.00 0.00 0.00 0.00 0.00 0.00 0.00 0.00 0.00 0.00 0.00 0.00 0.00 -0.00 0.00 0.00 0.00 0.00 0.00 0.00 0.00 -0.00 0.00 0.00 -0.00 0.00 0.00 0.00 0.00 0.00 0.00 0.00 0.00 0.00 0.00 0.00 0.00 0.00 -0.00 0.00 0.00 0.00 0.00 0.01 0.02 0.04
0.00 0.00 0.00 0.00 0.00 0.00 0.00 0.00 0.00 0.00 0.00 0.00 0.00 0.00 0.00 0.00 0.00 0.00 -0.00 0.00 -0.00 0.00 -0.00 0.00 0.00 0.00 0.00 0.00 0.00 0.00 0.00 0.00 0.00 -0.00 0.00 -0.00 0.00 0.00 0.00 0.00 0.00 0.00 0.00 0.00 0.00 0.00 0.00 0.00 0.00 0.00 -0.00 0.00 0.00 -0.00 -0.00 0.00 -0.00 -0.00 0.00 0.00 0.00 0.00 0.00
0.00 0.00 0.00 0.00 0.00 0.00 0.00 0.00 0.00 0.00 0.00 0.00 0.00 0.00 0.00 0.00 0.00 0.00 0.00 -0.00 0.00 -0.00 0.00 0.00 0.00 0.00 0.00 0.00 0.00 0.00 0.00 0.00 0.00 0.00 -0.00 0.00 0.00 -0.00 0.00 0.00 0.00 0.00 0.00 0.00 0.00 0.00 0.00 -0.00 0.00 0.00 0.00 0.00 0.00 0.00 0.00 0.00 0.00 0.00 0.00 0.00 0.00 0.00 0.00
0.00 0.00 0.00 0.00 0.00 0.00 0.00 0.00 0.00 0.00 0.00 0.00 0.00 0.00 0.00 0.00 0.00 0.00 0.00 0.00 0.00 0.00 0.00 0.00 0.00 0.00 0.00 0.00 0.00 0.00 0.00 0.00 0.00 -0.00 -0.00 0.00 0.00 0.00 0.00 0.00 -0.00 -0.00 -0.00 0.00 0.00 0.00 0.00 0.00 0.00 0.00 0.00 -0.00 0.00 -0.00 0.00 0.00 0.00 0.00 0.00 0.00 0.00 0.00 0.00
0.00 0.00 0.00 0.00 0.00 0.00 0.00 0.00 0.00 0.00 0.00 0.00 0.00 0.00 0.00 0.00 0.00 0.00 -0.00 0.00 0.00 -0.00 -0.00 0.00 0.00 0.00 0.00 0.00 0.00 0.00 0.00 0.00 0.00 0.00 0.00 0.00 0.00 0.00 -0.00 -0.00 0.00 -0.00 0.00 0.00 0.00 0.00 0.00 0.00 0.00 0.00 0.00 0.00 -0.00 0.00 0.00 0.00 0.00 0.00 0.00 0.00 0.00 0.00 0.00
0.00 0.00 0.00 0.00 0.00 0.00 0.00 0.00 0.00 0.00 0.00 0.00 0.00 0.00 0.00 0.00 0.00 0.00 0.00 -0.00 0.00 0.00 0.00 -0.00 -0.00 0.00 0.00 -0.00 0.00 0.00 0.00 0.00 0.00 0.00 -0.00 0.00 0.00 0.00 0.00 0.00 0.00 -0.00 0.00 0.00 -0.00 0.00 0.00 0.00 0.00 0.00 0.00 0.00 0.00 -0.00 -0.00 0.00 -0.00 -0.00 0.00 0.00 0.00 0.00 0.00
0.00 0.00 0.00 0.00 0.00 0.00 0.00 0.00 0.00 0.00 0.00 0.00 0.00 0.00 0.00 0.00 0.00 0.00 -0.00 -0.00 -0.00 -0.00 0.00 0.00 0.00 -0.00 0.00 0.00 -0.00 0.00 0.00 0.00 0.00 0.00 -0.00 0.00 -0.00 0.00 -0.00 0.00 0.00 0.00 0.00 0.00 -0.00 0.00 -0.00 -0.00 0.00 0.00 -0.00 0.00 0.00 0.00 0.00 0.00 -0.00 0.00 0.00 -0.00 0.00 0.00 0.00
0.00 0.00 0.00 0.00 0.00 0.00 0.00 0.00 0.00 0.00 0.00 0.00 0.00 0.00 0.00 0.00 0.00 0.00 0.00 0.00 0.00 0.00 -0.00 -0.00 0.00 0.00 0.00 0.00 -0.00 -0.00 0.00 0.00 0.00 0.00 0.00 -0.00 0.00 0.00 0.00 0.00 0.00 0.00 -0.00 -0.00 -0.00 0.00 0.00 -0.00 0.00 0.00 0.00 -0.00 0.00 0.00 0.00 0.00 0.00 0.00 -0.00 0.00 0.00 0.00 0.00
0.00 0.00 0.00 0.00 0.00 0.00 0.00 0.00 0.00 0.00 0.00 0.00 0.00 0.00 0.00 0.00 0.00 0.00 0.00 -0.00 -0.00 -0.00 0.00 0.00 0.00 0.00 0.00 -0.00 0.00 0.00 -0.00 0.00 0.00 0.00 0.00 0.00 0.00 0.00 0.00 0.00 0.00 -0.00 0.00 0.00 0.00 -0.00 0.00 0.00 0.00 -0.00 0.00 -0.00 0.00 0.00 0.00 0.00 -0.00 0.00 0.00 0.00 0.00 0.00 0.00
0.00 0.00 0.00 0.00 0.00 0.00 0.00 0.00 0.00 0.00 0.00 0.00 0.00 0.00 0.00 0.00 0.00 0.00 0.00 0.00 0.00 -0.00 0.00 0.00 -0.00 0.00 0.00 0.00 0.00 0.00 0.00 -0.00 0.00 0.00 0.00 -0.00 0.00 0.00 0.00 -0.00 0.00 0.00 0.00 0.00 0.00 -0.00 0.00 0.00 0.00 0.00 0.00 0.00 0.00 0.00 0.00 0.00 0.00 0.00 0.00 0.00 0.00 0.00 0.00
0.00 0.00 0.00 0.00 0.00 0.00 0.00 0.00 0.00 0.00 0.00 0.00 0.00 0.00 0.00 0.00 0.00 0.00 -0.00 0.00 0.00 0.00 0.00 0.00 0.00 0.00 -0.00 -0.00 0.00 -0.00 0.00 0.00 0.00 0.00 0.00 0.00 -0.00 0.00 0.00 0.00 0.00 -0.00 -0.00 0.00 0.00 0.00 0.00 0.00 0.00 -0.00 0.00 0.00 0.00 -0.00 0.00 0.00 0.00 0.00 0.00 -0.00 -0.00 0.00 0.00
0.00 0.00 0.00 0.00 0.00 0.00 0.00 0.00 0.00 0.00 0.00 0.00 0.00 0.00 0.00 0.00 0.00 0.00 -0.00 0.00 0.00 0.00 0.00 -0.00 -0.00 0.00 0.00 0.00 0.00 -0.00 0.00 0.00 0.00 0.00 0.00 -0.00 0.00 0.00 0.00 0.00 0.00 0.00 0.00 -0.00 -0.00 0.00 0.00 0.00 0.00 0.00 0.00 -0.00 0.00 0.00 0.00 -0.00 0.00 0.00 -0.00 0.00 -0.00 0.00 0.00
0.00 0.00 0.00 0.00 0.00 0.00 0.00 0.00 0.00 0.00 0.00 -0.00 0.00 -0.00 -0.00 0.00 -0.00 0.00 0.00 0.00 0.00 0.00 -0.00 0.00 0.00 0.00 0.00 0.00 0.00 0.00 0.00 -0.00 0.00 0.00 0.00 0.00 -0.00 0.00 -0.00 0.00 0.00 0.00 0.00 0.00 0.00 0.00 0.00 0.00 -0.00 -0.00 0.00 0.00 0.00 0.00 0.00 0.00 0.00 0.00 0.00 -0.00 0.00 -0.00 0.00
0.01 0.01 0.01 0.00 0.00 0.00 0.00 0.00 0.00 0.00 0.01 0.00 0.00 0.00 0.00 0.00 0.00 -0.00 0.00 0.00 0.00 0.00 0.00 -0.00 0.00 0.00 0.00 0.00 0.00 -0.00 0.00 -0.00 0.00 0.00 0.00 0.00 0.00 -0.00 0.00 0.00 0.00 -0.00 0.00 0.00 0.00 -0.00 0.00 0.00 0.00 -0.00 -0.00 0.00 0.00 0.00 0.00 0.00 0.00 -0.00 0.00 0.00 0.00 0.00 0.00
0.01 0.02 0.02 0.00 0.00 0.00 0.01 0.00 0.00 0.00 0.00 0.01 0.00 0.02 0.06 0.00 0.02 0.00 0.00 0.00 0.00 0.00 0.00 0.00 0.00 -0.00 0.00 0.00 -0.00 -0.00 0.00 0.00 0.00 0.00 0.00 0.00 0.00 -0.00 -0.00 0.00 -0.00 0.00 0.00 0.00 0.00 0.00 0.00 -0.00 0.00 0.00 -0.00 -0.00 0.00 0.00 0.00 0.00 -0.00 0.00 0.00 0.00 0.00 -0.00 0.00
0.01 0.01 0.00 0.00 0.00 0.00 0.00 0.00 0.00 0.00 0.00 0.00 0.24 0.10 0.02 0.05 0.00 0.00 0.00 0.00 0.00 0.00 0.00 -0.00 0.00 -0.00 0.00 0.00 0.00 0.00 0.00 0.00 0.00 0.00 0.00 0.00 0.00 -0.00 0.00 0.00 0.00 0.00 0.00 0.00 0.00 0.00 0.00 0.00 0.00 -0.00 0.00 0.00 -0.00 -0.00 0.00 -0.00 0.00 0.00 0.00 0.00 0.00 0.00 0.00
0.00 0.01 0.01 0.01 0.00 0.00 0.00 0.00 0.01 0.01 0.00 0.00 0.06 0.06 0.09 0.06 0.02 0.02 0.01 0.00 0.00 0.00 0.00 0.00 0.00 0.00 0.00 0.00 -0.00 0.00 0.00 0.00 0.00 0.00 0.00 0.00 0.00 0.00 0.00 0.00 0.00 0.00 0.00 0.00 -0.00 0.00 0.00 0.00 0.00 0.00 0.00 -0.00 0.00 -0.00 0.00 0.00 -0.00 0.00 0.00 0.00 0.00 0.00 0.00
0.00 0.00 0.00 -0.00 0.00 0.00 0.00 0.00 0.00 0.00 0.01 0.00 0.00 0.00 0.01 0.05 0.01 0.02 0.00 0.05 0.05 0.07 0.22 0.25 0.10 0.07 0.01 0.00 0.00 0.00 -0.00 0.00 0.00 0.00 0.00 0.00 0.00 0.00 0.00 -0.00 0.00 0.00 0.00 0.00 0.00 -0.00 0.00 0.00 0.00 0.00 0.00 0.00 0.00 0.00 -0.00 0.00 0.00 -0.00 0.00 0.00 0.00 0.00 0.00
0.00 0.00 0.00 0.00 0.00 0.00 -0.00 0.01 0.01 0.00 0.00 0.00 0.00 0.01 0.04 0.00 0.06 0.06 0.11 0.08 0.06 0.06 0.04 0.02 0.01 0.00 0.00 -0.00 -0.00 -0.00 0.00 -0.00 0.00 0.00 -0.00 0.00 0.00 0.00 0.00 -0.00 0.00 0.00 0.00 0.00 0.00 0.00 0.00 0.00 -0.00 0.00 0.00 0.00 0.00 0.00 0.00 0.00 0.00 0.00 -0.00 0.00 0.00 0.00 0.00
0.00 0.00 0.00 -0.00 -0.00 0.00 0.00 0.00 -0.00 -0.00 0.00 0.00 0.01 0.01 0.00 0.00 0.00 0.00 0.00 0.10 0.00 0.00 0.00 0.00 0.00 0.00 0.00 0.00 0.00 0.00 0.00 0.00 0.00 0.00 0.00 0.00 -0.00 0.00 0.00 0.00 0.00 0.00 0.00 0.00 0.00 0.00 0.00 0.00 0.00 0.00 -0.00 0.00 0.00 -0.00 0.00 0.00 0.00 0.00 0.00 0.00 0.00 0.00 0.00
0.00 0.00 0.00 0.00 -0.00 0.00 0.00 0.00 -0.00 -0.00 0.00 0.00 0.00 0.00 0.00 0.00 0.01 0.01 0.00 0.00 0.00 0.00 0.00 0.00 0.00 0.00 0.00 0.00 -0.00 0.00 0.00 0.00 -0.00 0.00 -0.00 0.00 0.00 0.00 0.00 -0.00 0.00 0.00 0.00 0.00 0.00 0.00 0.00 0.00 0.00 0.00 -0.00 0.00 0.00 0.00 0.00 0.00 0.00 0.00 0.00 0.00 0.00 0.00 -0.00
-0.00 0.00 0.00 0.00 0.00 0.00 0.00 0.00 0.00 0.00 -0.00 0.00 0.00 0.00 0.00 0.00 0.00 0.00 0.00 0.00 0.00 0.00 -0.00 0.00 0.00 0.00 0.00 0.00 0.00 0.00 0.00 0.00 0.00 0.00 0.00 -0.00 -0.00 0.00 -0.00 -0.00 0.00 0.00 0.00 0.00 0.00 0.00 -0.00 0.00 0.00 0.00 0.00 0.00 0.00 0.00 0.00 -0.00 0.00 0.00 -0.00 0.00 0.00 0.00 0.00
0.00 0.00 0.00 0.00 -0.00 0.00 0.00 0.00 0.00 0.00 0.00 0.00 -0.00 0.00 0.00 0.00 0.00 0.00 0.00 0.00 -0.00 0.00 0.00 0.00 0.00 0.00 0.00 0.00 0.00 0.00 -0.00 -0.00 0.00 0.00 0.00 0.00 0.00 0.00 0.00 0.00 -0.00 0.00 -0.00 0.00 0.00 0.00 0.00 0.00 -0.00 0.00 0.00 0.00 0.00 0.00 0.00 0.00 0.00 0.00 0.00 0.00 0.00 0.00 0.00
-0.00 0.00 0.00 0.00 0.00 0.00 -0.00 -0.00 0.00 0.00 0.00 0.00 0.00 0.00 0.00 0.00 0.00 0.00 0.00 0.00 0.00 -0.00 0.00 0.00 0.00 0.00 0.00 0.00 0.00 0.00 0.00 0.00 -0.00 0.00 0.00 -0.00 0.00 -0.00 -0.00 0.00 0.00 0.00 0.00 0.00 0.00 0.00 0.00 0.00 0.00 0.00 0.00 0.00 0.00 0.00 0.00 0.00 0.00 0.00 0.00 0.00 -0.00 -0.00 -0.00
0.00 0.00 0.00 -0.00 0.00 0.00 0.00 0.00 0.00 0.00 0.00 0.00 0.00 0.00 0.00 0.00 0.00 0.00 0.00 0.00 0.00 0.00 0.00 0.00 0.00 0.00 0.00 0.00 0.00 0.00 0.00 0.00 0.00 0.00 0.00 0.00 0.00 0.00 -0.00 0.00 0.00 0.00 0.00 0.00 0.00 0.00 0.00 -0.00 0.00 0.00 0.00 -0.00 0.00 -0.00 -0.00 0.00 -0.00 0.00 0.00 -0.00 -0.00 0.00 0.00
0.00 0.00 0.00 0.00 0.00 -0.00 0.00 0.00 0.00 0.00 0.00 0.00 0.00 0.00 0.00 0.00 0.00 0.00 0.00 0.00 0.00 0.00 0.00 0.00 0.00 0.00 0.00 0.00 0.00 0.00 0.00 0.00 -0.00 0.00 0.00 -0.00 0.00 -0.00 0.00 -0.00 -0.00 0.00 0.00 -0.00 0.00 0.00 0.00 0.00 0.00 -0.00 -0.00 -0.00 -0.00 0.00 0.00 0.00 0.00 0.00 0.00 0.00 0.00 0.00 -0.00
0.00 0.00 0.00 0.00 0.00 0.00 0.00 0.00 0.00 0.00 0.00 0.00 0.00 0.00 0.00 0.00 0.00 -0.00 0.00 0.00 0.00 0.00 0.00 0.00 0.00 0.00 0.00 0.00 0.00 0.00 0.00 0.00 0.00 0.00 0.00 -0.00 0.00 0.00 0.00 0.00 0.00 0.00 0.00 0.00 0.00 0.00 0.00 0.00 0.00 -0.00 0.00 -0.00 0.00 0.00 0.00 0.00 0.00 0.00 0.00 0.00 0.00 0.00 0.00
-0.00 0.00 0.00 0.00 0.00 0.00 0.00 0.00 0.00 0.00 0.00 0.00 0.00 0.00 0.00 0.00 0.00 0.01 0.01 0.01 0.00 0.00 0.00 0.00 0.00 0.00 0.00 0.00 0.00 0.00 0.00 -0.00 0.00 0.00 0.00 0.00 0.00 0.00 -0.00 0.00 0.00 0.00 0.00 0.00 0.00 -0.00 0.00 0.00 0.00 -0.00 -0.00 0.00 0.00 0.00 0.00 0.00 0.00 -0.00 0.00 -0.00 0.00 0.00 0.00
0.00 -0.00 0.00 -0.00 0.00 0.00 0.00 0.00 0.00 0.01 0.00 0.00 0.00 0.00 0.00 0.01 0.03 0.03 0.02 0.01 0.01 0.01 0.00 0.00 0.00 0.00 0.00 -0.00 0.00 0.00 0.00 0.00 -0.00 0.00 0.00 0.00 0.00 0.00 0.00 -0.00 0.00 0.00 0.00 0.00 0.00 0.00 0.00 0.00 0.00 -0.00 0.00 0.00 0.00 0.00 0.00 0.00 0.00 0.00 0.00 0.00 0.00 0.00 0.00
0.00 0.00 -0.00 0.00 0.00 0.00 0.00 0.00 0.01 0.00 0.00 0.00 0.00 0.00 0.01 0.03 0.03 0.02 0.02 0.01 0.01 0.00 0.00 -0.00 0.00 0.00 0.00 -0.00 0.00 0.00 0.00 0.00 0.00 -0.00 0.00 0.00 0.00 0.00 -0.00 0.00 0.00 0.00 0.00 0.00 0.00 0.00 0.00 0.00 0.00 0.00 0.00 0.00 0.00 0.00 0.00 0.00 0.00 -0.00 0.00 0.00 0.00 0.00 0.00
0.00 0.00 0.00 0.00 0.00 0.00 0.00 0.01 0.00 0.00 0.00 0.00 0.00 0.01 0.03 0.05 0.03 0.02 0.01 0.00 0.00 0.00 -0.00 0.00 -0.00 -0.00 0.00 0.00 0.00 0.00 0.00 0.00 0.00 0.00 0.00 0.00 0.00 0.00 0.00 -0.00 0.00 0.00 0.00 0.00 0.00 0.00 -0.00 0.00 0.00 0.00 0.00 0.00 0.00 0.00 0.00 0.00 0.00 0.00 0.00 0.00 0.00 0.00 0.00
0.00 0.00 0.00 0.00 0.00 0.01 0.01 0.01 0.00 0.00 0.00 0.00 0.01 0.01 0.01 0.01 0.01 0.04 0.03 0.03 0.03 0.00 0.02 0.00 0.00 0.00 0.00 0.00 0.00 0.00 0.00 -0.00 -0.00 0.00 0.00 0.00 0.00 0.00 -0.00 0.00 0.00 -0.00 0.00 0.00 0.00 0.00 0.00 0.00 0.00 0.00 -0.00 0.00 0.00 0.00 0.00 0.01 0.00 0.01 0.01 0.00 0.00 0.00 0.00
0.00 0.00 0.00 0.00 0.00 0.01 0.01 0.01 0.00 0.00 0.01 0.01 0.01 0.01 0.01 0.01 0.00 0.01 0.04 0.01 0.00 0.00 0.00 0.05 0.00 0.00 0.00 0.00 -0.00 0.00 0.00 0.00 0.00 -0.00 0.00 0.00 0.00 0.00 0.00 0.00 0.00 0.00 0.00 -0.00 0.00 0.00 0.00 0.00 0.00 -0.00 0.00 0.00 0.00 -0.00 0.01 0.00 0.00 0.00 0.00 0.00 0.00 0.00 0.00
MSLP
1016.98 1017.38 1017.62 1017.74 1017.82 1017.98 1018.26 1018.46 1018.42 1018.54 1018.46 1018.46 1018.54 1018.46 1018.46 1018.54 1018.58 1018.70 1018.66 1018.70 1018.66 1018.66 1018.62 1018.70 1018.82 1018.78 1018.78 1018.82 1018.86 1018.78 1018.66 1018.58 1018.62 1018.62 1018.86 1018.82 1019.06 1019.22 1019.18 1019.30 1019.22 1019.54 1019.34 1019.42 1019.54 1019.98 1020.18 1020.34 1020.02 1019.42 1019.30 1019.34 1019.14 1018.78 1018.58 1018.54 1018.02 1017.82 1017.94 1017.86 1017.58 1017.38 1017.30
1016.86 1017.14 1017.34 1017.58 1017.86 1018.02 1018.38 1018.38 1018.42 1018.50 1018.58 1018.58 1018.54 1018.66 1018.58 1018.62 1018.74 1018.82 1018.86 1018.86 1018.86 1018.82 1018.74 1018.86 1018.94 1019.02 1019.14 1019.18 1019.18 1019.14 1019.18 1019.14 1019.10 1019.10 1019.02 1019.10 1019.22 1019.38 1019.30 1019.30 1019.18 1019.14 1019.14 1019.30 1019.26 1019.42 1019.86 1020.22 1020.14 1020.06 1020.10 1019.50 1019.26 1018.90 1018.78 1018.50 1018.58 1018.30 1018.22 1018.10 1017.94 1017.74 1017.62
1016.90 1017.06 1017.14 1017.66 1017.90 1018.06 1018.34 1018.50 1018.54 1018.58 1018.66 1018.78 1018.78 1018.74 1018.78 1018.78 1018.86 1018.94 1019.02 1019.14 1019.14 1019.06 1018.98 1019.14 1019.30 1019.38 1019.38 1019.38 1019.46 1019.46 1019.50 1019.50 1019.46 1019.50 1019.50 1019.38 1019.34 1019.38 1019.26 1019.38 1019.34 1019.34 1019.06 1019.06 1019.26 1019.38 1019.26 1019.26 1019.82 1019.98 1019.86 1020.06 1020.30 1019.46 1018.98 1018.86 1018.74 1018.78 1018.66 1018.30 1018.14 1017.94 1017.98
1017.02 1017.22 1017.42 1017.74 1017.78 1018.02 1018.22 1018.38 1018.42 1018.46 1018.54 1018.74 1018.82 1018.94 1018.94 1018.98 1019.06 1019.06 1019.14 1019.22 1019.26 1019.26 1019.26 1019.30 1019.34 1019.38 1019.54 1019.58 1019.62 1019.66 1019.70 1019.70 1019.74 1019.86 1019.90 1019.90 1019.74 1019.82 1019.66 1019.50 1019.54 1019.66 1019.54 1019.50 1019.58 1019.58 1019.70 1019.58 1019.38 1019.18 1018.98 1018.90 1019.14 1019.38 1019.02 1018.78 1018.66 1018.54 1018.54 1018.42 1018.14 1017.86 1017.66
1016.82 1017.18 1017.38 1017.66 1017.74 1017.98 1018.02 1018.18 1018.18 1018.34 1018.54 1018.70 1018.86 1018.94 1019.10 1019.10 1019.14 1019.26 1019.30 1019.34 1019.38 1019.42 1019.46 1019.38 1019.46 1019.50 1019.54 1019.58 1019.66 1019.70 1019.86 1019.94 1019.94 1019.94 1020.06 1020.14 1020.10 1020.02 1020.06 1019.86 1019.82 1019.82 1019.90 1019.90 1019.86 1020.02 1019.98 1019.70 1019.66 1019.54 1019.18 1018.66 1018.58 1018.42 1018.10 1018.26 1018.10 1018.06 1017.82 1017.70 1017.42 1017.46 1017.54
1016.58 1016.86 1017.10 1017.34 1017.46 1017.70 1017.74 1017.94 1018.06 1018.26 1018.42 1018.70 1018.78 1018.90 1019.06 1019.18 1019.14 1019.34 1019.38 1019.38 1019.50 1019.54 1019.62 1019.58 1019.66 1019.66 1019.62 1019.66 1019.82 1019.90 1019.94 1020.02 1020.06 1020.10 1020.22 1020.38 1020.30 1020.18 1020.18 1020.06 1019.90 1019.82 1019.98 1020.14 1020.26 1020.26 1020.02 1019.98 1019.94 1019.90 1019.06 1018.70 1019.14 1018.70 1018.10 1017.98 1018.06 1017.46 1017.30 1017.18 1016.86 1016.50 1016.34
1016.42 1016.62 1016.78 1016.94 1017.18 1017.30 1017.38 1017.70 1017.90 1017.94 1018.18 1018.42 1018.62 1018.78 1018.86 1019.02 1019.06 1019.14 1019.22 1019.34 1019.46 1019.62 1019.74 1019.82 1019.82 1019.78 1019.74 1019.70 1019.90 1020.02 1020.14 1020.18 1020.26 1020.34 1020.38 1020.46 1020.46 1020.42 1020.22 1020.14 1020.06 1020.06 1020.18 1020.22 1020.30 1020.30 1020.34 1020.34 1020.06 1019.86 1019.70 1019.34 1019.26 1019.02 1018.18 1017.74 1017.26 1017.54 1016.98 1016.66 1016.42 1016.34 1016.22
1016.18 1016.34 1016.50 1016.58 1016.86 1017.14 1017.22 1017.46 1017.62 1017.70 1017.86 1018.10 1018.34 1018.50 1018.74 1018.90 1019.02 1019.14 1019.26 1019.38 1019.54 1019.66 1019.78 1019.90 1019.90 1019.90 1019.86 1019.74 1019.86 1020.14 1020.10 1020.18 1020.34 1020.34 1020.46 1020.54 1020.62 1020.62 1020.58 1020.38 1020.34 1020.26 1020.26 1020.18 1020.14 1020.14 1020.10 1020.38 1020.46 1020.26 1020.14 1019.98 1019.34 1018.90 1018.58 1017.78 1017.38 1017.38 1017.30 1016.70 1016.38 1016.30 1016.14
1015.98 1016.10 1016.26 1016.38 1016.54 1016.78 1017.02 1017.26 1017.46 1017.58 1017.62 1017.78 1017.98 1018.30 1018.70 1018.78 1018.98 1019.14 1019.26 1019.38 1019.46 1019.62 1019.74 1019.82 1019.86 1019.82 1019.94 1019.90 1019.98 1020.18 1020.26 1020.26 1020.46 1020.50 1020.54 1020.66 1020.78 1020.82 1020.70 1020.62 1020.38 1020.38 1020.38 1020.38 1020.14 1020.22 1020.06 1020.14 1020.22 1020.34 1020.42 1020.26 1019.98 1019.26 1018.34 1018.30 1017.90 1017.46 1016.90 1017.22 1016.54 1016.26 1016.14
1015.98 1016.14 1016.18 1016.26 1016.46 1016.58 1016.78 1017.02 1017.18 1017.34 1017.46 1017.62 1017.86 1018.18 1018.58 1018.70 1018.86 1019.02 1019.14 1019.30 1019.46 1019.58 1019.70 1019.74 1019.78 1019.82 1019.90 1019.86 1019.94 1020.14 1020.18 1020.18 1020.22 1020.38 1020.34 1020.42 1020.62 1020.62 1020.70 1020.82 1020.58 1020.50 1020.58 1020.54 1020.42 1020.38 1020.30 1020.22 1019.90 1019.90 1019.98 1020.14 1020.10 1020.02 1019.54 1018.90 1018.26 1018.06 1017.26 1017.02 1017.46 1016.54 1016.22
1015.82 1015.94 1016.02 1016.18 1016.34 1016.50 1016.66 1016.78 1016.94 1017.22 1017.46 1017.50 1017.74 1018.02 1018.30 1018.58 1018.78 1018.98 1019.06 1019.22 1019.38 1019.50 1019.62 1019.66 1019.70 1019.78 1019.86 1019.82 1020.02 1020.06 1020.14 1020.22 1020.34 1020.34 1020.38 1020.42 1020.54 1020.54 1020.66 1020.58 1020.50 1020.38 1020.62 1020.54 1020.42 1020.54 1020.38 1020.34 1020.18 1019.90 1019.74 1019.62 1019.82 1020.10 1019.90 1019.78 1018.98 1018.38 1018.10 1017.66 1017.42 1017.26 1016.66
1015.66 1015.74 1015.78 1015.86 1016.02 1016.26 1016.50 1016.58 1016.74 1016.90 1017.10 1017.34 1017.58 1017.86 1018.10 1018.34 1018.58 1018.78 1018.90 1019.06 1019.22 1019.34 1019.46 1019.58 1019.66 1019.74 1019.74 1019.86 1020.06 1020.06 1020.30 1020.30 1020.26 1020.38 1020.46 1020.58 1020.62 1020.58 1020.70 1020.74 1020.62 1020.46 1020.58 1020.58 1020.58 1020.42 1020.42 1020.34 1020.14 1019.94 1019.70 1019.66 1019.62 1019.82 1019.94 1019.90 1019.78 1018.46 1018.18 1018.18 1017.54 1017.18 1017.14
1015.38 1015.46 1015.54 1015.70 1015.86 1016.02 1016.18 1016.34 1016.50 1016.70 1016.82 1017.02 1017.26 1017.54 1017.82 1018.02 1018.26 1018.54 1018.66 1018.86 1019.06 1019.14 1019.30 1019.38 1019.50 1019.54 1019.70 1019.74 1019.90 1019.90 1020.14 1020.26 1020.26 1020.38 1020.42 1020.50 1020.58 1020.62 1020.74 1020.74 1020.70 1020.50 1020.54 1020.46 1020.30 1020.30 1020.38 1020.34 1020.38 1020.14 1019.90 1019.74 1019.62 1019.66 1019.74 1019.66 1019.46 1019.06 1018.30 1018.26 1018.10 1017.86 1017.50
1015.34 1015.34 1015.46 1015.54 1015.70 1015.78 1015.90 1016.02 1016.18 1016.34 1016.54 1016.78 1016.94 1017.26 1017.54 1017.70 1017.90 1018.18 1018.38 1018.62 1018.78 1018.98 1019.14 1019.26 1019.34 1019.42 1019.50 1019.62 1019.66 1019.74 1020.06 1020.10 1020.22 1020.18 1020.30 1020.66 1020.66 1020.62 1020.62 1020.66 1020.62 1020.66 1020.74 1020.74 1020.42 1020.30 1020.22 1020.22 1020.22 1020.18 1020.02 1019.86 1019.70 1019.58 1019.58 1019.46 1019.22 1018.74 1018.30 1018.02 1018.06 1017.86 1017.54
1015.14 1015.22 1015.38 1015.50 1015.62 1015.62 1015.66 1015.78 1015.86 1016.06 1016.34 1016.50 1016.62 1016.90 1017.10 1017.38 1017.58 1017.86 1018.06 1018.30 1018.54 1018.70 1018.90 1019.06 1019.22 1019.26 1019.34 1019.50 1019.66 1019.78 1019.90 1019.98 1019.98 1020.10 1020.30 1020.26 1020.46 1020.62 1020.74 1020.66 1020.50 1020.62 1020.66 1020.70 1020.66 1020.38 1019.94 1019.94 1019.90 1019.78 1019.62 1019.74 1019.62 1019.42 1019.34 1019.42 1019.10 1018.94 1018.62 1018.26 1018.06 1017.74 1017.58
1014.86 1015.06 1015.26 1015.38 1015.46 1015.50 1015.54 1015.58 1015.66 1015.94 1016.10 1016.26 1016.42 1016.54 1016.70 1016.98 1017.30 1017.54 1017.78 1017.98 1018.18 1018.42 1018.66 1018.86 1019.02 1019.14 1019.22 1019.38 1019.50 1019.70 1019.78 1019.82 1019.94 1020.06 1020.22 1020.18 1020.10 1020.22 1020.50 1020.50 1020.46 1020.54 1020.66 1020.70 1020.66 1020.50 1020.38 1020.26 1019.98 1019.74 1019.66 1019.62 1019.58 1019.50 1019.42 1019.38 1019.34 1019.06 1018.82 1018.46 1018.18 1017.98 1017.74
1014.82 1014.90 1015.10 1015.14 1015.26 1015.30 1015.34 1015.46 1015.54 1015.74 1015.86 1015.98 1016.18 1016.30 1016.42 1016.58 1016.90 1017.18 1017.42 1017.62 1017.78 1018.06 1018.30 1018.54 1018.82 1018.94 1019.02 1019.18 1019.34 1019.50 1019.66 1019.74 1019.86 1019.94 1020.02 1020.06 1020.06 1020.26 1020.26 1020.38 1020.34 1020.38 1020.38 1020.50 1020.46 1020.38 1020.18 1020.06 1020.06 1019.86 1019.74 1019.50 1019.46 1019.50 1019.46 1019.42 1019.38 1019.26 1018.94 1018.70 1018.14 1017.98 1017.62
1014.98 1014.86 1014.98 1015.06 1015.06 1015.10 1015.18 1015.30 1015.34 1015.50 1015.62 1015.78 1015.86 1016.10 1016.34 1016.50 1016.74 1016.82 1016.98 1017.18 1017.42 1017.74 1017.94 1018.18 1018.46 1018.66 1018.82 1019.02 1019.18 1019.34 1019.50 1019.58 1019.74 1019.86 1019.98 1020.10 1020.38 1020.30 1020.26 1020.26 1020.26 1020.26 1020.38 1020.42 1020.34 1020.22 1020.02 1020.22 1020.10 1019.90 1019.78 1019.54 1019.30 1019.14 1019.06 1019.10 1019.02 1018.86 1018.70 1018.50 1018.22 1017.98 1017.86
1014.86 1014.86 1014.98 1015.10 1015.10 1014.98 1015.02 1015.06 1015.10 1015.22 1015.30 1015.54 1015.70 1015.90 1016.02 1016.30 1016.46 1016.62 1016.78 1016.86 1016.98 1017.22 1017.42 1017.74 1017.98 1018.22 1018.50 1018.82 1019.02 1019.22 1019.38 1019.50 1019.66 1019.70 1019.86 1020.02 1020.06 1020.18 1020.38 1020.30 1020.26 1020.30 1020.26 1020.30 1020.22 1020.18 1020.22 1020.18 1020.10 1019.98 1019.82 1019.62 1019.34 1019.22 1019.14 1018.98 1018.86 1018.74 1018.58 1018.22 1018.02 1017.74 1017.62
1014.34 1014.30 1014.42 1014.62 1014.58 1014.58 1014.58 1014.58 1014.70 1014.86 1014.98 1015.22 1015.42 1015.74 1015.90 1016.10 1016.10 1016.14 1016.22 1016.42 1016.62 1016.90 1017.18 1017.50 1017.78 1018.06 1018.30 1018.58 1018.78 1019.02 1019.22 1019.42 1019.58 1019.70 1019.82 1019.86 1019.98 1020.14 1020.26 1020.22 1020.34 1020.38 1020.38 1020.26 1020.26 1020.18 1020.10 1020.14 1020.10 1020.02 1019.90 1019.78 1019.62 1019.42 1019.30 1018.98 1018.70 1018.46 1018.22 1017.98 1017.66 1017.50 1017.30
1014.30 1014.46 1014.38 1014.26 1014.26 1014.30 1014.38 1014.34 1014.50 1014.66 1014.70 1015.02 1015.18 1015.46 1015.50 1015.66 1015.82 1015.94 1016.06 1016.14 1016.30 1016.58 1016.98 1017.34 1017.62 1017.98 1018.22 1018.42 1018.58 1018.82 1018.98 1019.22 1019.38 1019.62 1019.82 1019.86 1019.94 1020.10 1020.14 1020.22 1020.22 1020.18 1020.18 1020.14 1020.14 1020.14 1020.14 1020.06 1019.90 1019.78 1019.58 1019.54 1019.42 1019.38 1019.18 1018.86 1018.66 1018.42 1018.18 1017.86 1017.54 1017.26 1016.94
1014.38 1014.26 1014.18 1014.02 1014.02 1014.14 1014.26 1014.34 1014.38 1014.62 1014.94 1015.06 1015.02 1015.10 1015.10 1015.18 1015.34 1015.50 1015.58 1015.86 1016.06 1016.14 1016.34 1016.86 1017.14 1017.58 1018.02 1018.34 1018.42 1018.66 1018.82 1019.02 1019.22 1019.46 1019.62 1019.70 1019.82 1019.94 1019.98 1019.98 1020.06 1020.02 1020.10 1020.46 1020.74 1020.86 1020.78 1020.78 1020.54 1020.10 1019.74 1019.58 1019.46 1019.34 1019.14 1018.86 1018.50 1018.14 1017.82 1017.62 1017.26 1016.98 1016.78
1014.14 1013.94 1013.90 1013.86 1013.82 1013.82 1013.82 1014.02 1014.34 1014.54 1014.62 1014.78 1014.82 1014.90 1014.86 1014.86 1015.14 1015.30 1015.66 1016.06 1016.18 1016.46 1016.70 1016.78 1017.02 1017.58 1017.86 1018.06 1018.34 1018.54 1018.82 1019.02 1019.22 1019.30 1019.50 1019.58 1019.70 1019.78 1019.82 1019.82 1019.86 1020.10 1020.38 1020.54 1020.66 1020.78 1020.86 1020.82 1020.90 1020.70 1020.18 1019.82 1019.58 1019.38 1019.14 1018.86 1018.54 1018.14 1017.78 1017.46 1017.10 1016.78 1016.54
1014.02 1013.90 1013.70 1013.70 1013.66 1013.62 1013.66 1013.90 1014.22 1014.34 1014.34 1014.42 1014.66 1014.70 1014.70 1014.74 1014.90 1015.14 1015.42 1015.70 1016.02 1016.46 1016.82 1016.90 1017.26 1017.62 1017.90 1018.22 1018.34 1018.66 1018.90 1019.02 1019.18 1019.34 1019.46 1019.62 1019.62 1019.62 1019.62 1019.54 1019.58 1019.70 1020.02 1020.14 1020.22 1020.38 1020.42 1020.50 1020.54 1020.54 1020.62 1020.62 1020.46 1020.22 1019.74 1019.22 1018.74 1018.42 1018.02 1017.42 1016.94 1016.70 1016.42
1013.82 1013.70 1013.66 1013.58 1013.54 1013.50 1013.50 1013.58 1013.82 1013.94 1014.06 1014.14 1014.26 1014.50 1014.70 1014.58 1014.70 1014.90 1015.10 1015.30 1015.78 1016.22 1016.54 1017.18 1017.42 1017.78 1018.10 1018.42 1018.62 1018.66 1018.78 1018.98 1019.30 1019.30 1019.38 1019.50 1019.46 1019.46 1019.46 1019.54 1019.58 1019.58 1019.62 1019.62 1019.58 1019.58 1019.82 1019.98 1020.06 1020.10 1020.18 1020.22 1020.26 1020.34 1020.34 1020.06 1019.54 1018.94 1018.38 1017.78 1017.22 1016.82 1016.58
1013.66 1013.54 1013.50 1013.46 1013.46 1013.50 1013.50 1013.54 1013.50 1013.54 1013.66 1013.74 1013.90 1014.14 1014.26 1014.42 1014.46 1014.50 1014.82 1015.22 1015.62 1015.90 1016.58 1017.42 1017.62 1017.98 1018.34 1018.66 1018.90 1018.86 1018.78 1019.02 1019.14 1019.22 1019.38 1019.54 1019.58 1019.62 1019.58 1019.54 1019.46 1019.46 1019.34 1019.62 1019.74 1019.50 1019.26 1018.98 1019.18 1019.54 1019.58 1019.70 1019.78 1019.82 1019.86 1019.98 1020.02 1019.70 1019.06 1018.50 1017.86 1017.26 1016.86
1013.70 1013.58 1013.50 1013.42 1013.42 1013.38 1013.38 1013.38 1013.38 1013.34 1013.38 1013.42 1013.62 1013.86 1014.06 1014.26 1014.26 1014.34 1014.70 1014.98 1015.38 1015.82 1016.78 1017.62 1017.82 1018.26 1018.62 1018.90 1019.10 1019.02 1018.78 1019.18 1019.26 1019.30 1019.42 1019.50 1019.58 1019.58 1019.54 1019.50 1019.38 1019.22 1019.14 1019.10 1019.06 1019.06 1018.90 1018.82 1018.70 1018.66 1018.74 1018.70 1018.46 1018.54 1018.98 1019.18 1019.22 1019.30 1019.38 1018.90 1018.46 1017.86 1017.26
1013.66 1013.54 1013.42 1013.34 1013.34 1013.26 1013.22 1013.18 1013.18 1013.18 1013.14 1013.18 1013.30 1013.50 1013.66 1013.90 1014.02 1014.22 1014.58 1014.86 1015.26 1015.94 1017.06 1017.82 1018.06 1018.42 1018.74 1019.02 1019.22 1019.14 1018.86 1019.22 1019.26 1019.22 1019.34 1019.42 1019.50 1019.50 1019.46 1019.42 1019.38 1019.26 1019.10 1019.02 1018.90 1019.02 1019.02 1018.98 1018.90 1018.82 1018.70 1018.50 1018.34 1018.02 1017.74 1017.70 1017.90 1018.14 1018.26 1018.26 1017.90 1017.54 1017.26
1013.58 1013.50 1013.38 1013.26 1013.22 1013.14 1013.10 1013.10 1013.06 1012.94 1012.94 1012.90 1012.94 1013.10 1013.26 1013.54 1013.86 1014.26 1014.54 1014.90 1015.34 1016.30 1017.66 1017.98 1018.14 1018.46 1018.82 1019.06 1019.26 1018.94 1018.74 1019.02 1018.94 1018.98 1018.98 1019.06 1019.14 1019.06 1019.02 1019.06 1019.06 1018.98 1018.90 1018.86 1018.86 1019.26 1019.46 1019.42 1019.18 1018.94 1018.70 1018.38 1018.10 1017.82 1017.58 1017.46 1017.50 1017.46 1017.30 1017.10 1016.94 1016.86 1016.78
1013.42 1013.34 1013.26 1013.18 1013.06 1012.98 1012.94 1012.90 1012.82 1012.70 1012.78 1012.74 1012.78 1012.94 1013.14 1013.34 1013.74 1014.26 1014.62 1015.02 1015.70 1016.78 1017.78 1018.22 1018.30 1018.62 1018.86 1019.10 1019.14 1018.42 1018.54 1018.58 1018.46 1018.62 1018.70 1018.74 1018.74 1018.74 1018.78 1018.86 1018.90 1018.90 1018.86 1018.74 1018.90 1019.38 1019.66 1019.78 1019.34 1018.98 1018.58 1018.18 1017.82 1017.50 1017.22 1017.14 1017.06 1017.14 1017.26 1017.38 1017.38 1017.26 1017.18
1013.14 1013.10 1013.06 1012.98 1012.86 1012.74 1012.70 1012.62 1012.62 1012.58 1012.62 1012.58 1012.66 1012.86 1013.14 1013.42 1013.94 1014.42 1014.78 1015.38 1015.98 1016.82 1017.70 1018.22 1018.34 1018.66 1018.86 1019.02 1018.90 1018.38 1018.26 1018.14 1018.26 1018.42 1018.38 1018.42 1018.38 1018.34 1018.38 1018.78 1018.98 1018.98 1018.90 1018.70 1018.98 1019.54 1019.78 1019.78 1019.26 1018.82 1018.42 1018.06 1017.62 1017.34 1016.94 1016.78 1016.62 1016.42 1016.54 1016.82 1016.98 1017.02 1016.98
1012.94 1012.90 1012.86 1012.74 1012.70 1012.66 1012.62 1012.54 1012.38 1012.42 1012.38 1012.42 1012.54 1012.70 1013.02 1013.62 1014.30 1014.66 1015.18 1015.74 1016.26 1016.74 1017.62 1018.26 1018.42 1018.66 1018.94 1019.06 1018.98 1018.50 1018.30 1018.26 1018.30 1018.22 1018.18 1018.14 1018.14 1018.14 1018.14 1018.18 1018.50 1018.70 1018.66 1018.62 1018.90 1019.14 1019.38 1019.50 1019.22 1018.78 1018.50 1018.26 1017.86 1017.50 1017.10 1016.78 1016.42 1016.38 1016.46 1016.34 1016.10 1016.10 1016.06
1012.78 1012.74 1012.66 1012.58 1012.54 1012.46 1012.34 1012.34 1012.42 1012.46 1012.50 1012.54 1012.66 1012.94 1013.62 1014.22 1014.82 1015.34 1015.70 1016.14 1016.70 1017.06 1017.62 1018.14 1018.54 1018.74 1018.98 1019.22 1019.30 1018.98 1018.66 1018.54 1018.38 1018.30 1018.22 1018.10 1018.06 1018.02 1017.94 1017.82 1017.74 1018.10 1018.34 1018.54 1018.78 1019.10 1019.30 1019.46 1019.22 1018.78 1018.58 1018.30 1017.98 1017.58 1017.22 1016.94 1016.78 1016.74 1016.50 1016.42 1016.18 1016.06 1015.90
1012.46 1012.42 1012.38 1012.30 1012.22 1012.14 1012.14 1012.18 1012.30 1012.62 1012.98 1013.14 1013.34 1013.98 1014.54 1014.86 1015.34 1015.82 1016.06 1016.38 1016.74 1017.18 1017.54 1017.90 1018.58 1018.86 1019.10 1019.30 1019.46 1019.34 1018.86 1018.66 1018.50 1018.38 1018.30 1018.26 1018.06 1017.82 1017.62 1017.46 1017.38 1017.62 1018.42 1018.70 1018.86 1018.98 1019.10 1019.18 1019.18 1018.86 1018.50 1018.18 1017.90 1017.62 1017.78 1017.54 1017.26 1017.38 1017.10 1016.82 1016.58 1016.30 1016.02
1012.18 1012.26 1012.26 1012.30 1012.18 1012.10 1012.06 1012.14 1012.54 1013.06 1013.38 1013.78 1014.30 1014.70 1015.14 1015.42 1015.74 1016.10 1016.30 1016.46 1016.74 1017.14 1017.54 1017.86 1018.42 1019.02 1019.18 1019.38 1019.54 1019.66 1019.18 1018.70 1018.94 1018.94 1018.70 1018.26 1017.94 1017.66 1017.50 1017.38 1017.26 1017.54 1018.18 1018.46 1018.70 1018.86 1018.94 1018.98 1018.94 1018.70 1018.14 1018.06 1017.98 1018.14 1018.02 1017.70 1017.42 1017.22 1016.94 1016.62 1016.34 1016.02 1015.70
1012.22 1012.26 1012.22 1012.14 1012.18 1012.22 1012.10 1012.42 1012.94 1013.34 1013.74 1014.18 1014.62 1015.14 1015.50 1015.86 1016.22 1016.62 1016.86 1016.94 1017.10 1017.46 1017.86 1018.18 1018.42 1018.78 1019.18 1019.34 1019.58 1019.66 1019.66 1019.30 1019.42 1019.34 1018.66 1018.26 1018.02 1017.70 1017.50 1017.42 1017.34 1017.82 1018.38 1018.50 1018.54 1018.50 1018.50 1018.50 1018.42 1017.94 1017.78 1017.78 1017.82 1017.82 1017.82 1017.46 1017.18 1016.98 1016.62 1016.26 1015.94 1015.54 1015.18
1011.90 1011.86 1011.78 1011.82 1011.94 1012.10 1012.30 1012.86 1013.30 1013.54 1013.90 1014.30 1014.82 1015.30 1015.58 1015.86 1016.22 1016.66 1016.94 1017.14 1017.18 1017.38 1017.58 1017.86 1018.42 1018.70 1018.90 1019.22 1019.30 1019.34 1019.46 1019.58 1019.58 1019.10 1018.86 1018.50 1018.10 1017.86 1017.54 1017.30 1017.50 1017.98 1018.10 1018.18 1018.18 1018.10 1018.02 1017.98 1017.70 1017.50 1017.50 1017.42 1017.38 1017.38 1017.18 1016.82 1016.62 1016.34 1016.10 1015.78 1015.50 1015.10 1014.70
Thickness
5610 5608 5605 5605 5604 5602 5600 5600 5600 5600 5599 5600 5600 5600 5600 5600 5600 5600 5600 5601 5602 5603 5603 5604 5603 5603 5604 5603 5604 5606 5607 5608 5609 5608 5607 5608 5608 5607 5608 5609 5610 5610 5610 5610 5609 5607 5604 5604 5609 5612 5613 5616 5619 5622 5626 5629 5634 5638 5639 5641 5644 5646 5648
5609 5607 5604 5603 5601 5599 5597 5596 5597 5596 5596 5596 5596 5596 5596 5596 5596 5596 5596 5597 5597 5599 5600 5600 5599 5598 5598 5598 5599 5599 5600 5601 5601 5602 5603 5603 5604 5604 5604 5605 5606 5608 5608 5609 5608 5608 5606 5604 5604 5605 5607 5611 5614 5618 5622 5624 5627 5630 5632 5635 5638 5640 5642
5606 5604 5603 5600 5598 5597 5595 5594 5594 5593 5593 5592 5592 5592 5593 5592 5592 5592 5593 5592 5592 5594 5594 5594 5593 5593 5594 5593 5594 5594 5594 5595 5595 5596 5596 5597 5598 5598 5599 5600 5601 5603 5605 5606 5605 5605 5605 5605 5605 5605 5606 5607 5609 5611 5616 5620 5622 5625 5626 5629 5632 5635 5636
5603 5601 5599 5597 5596 5595 5593 5592 5592 5592 5591 5590 5589 5589 5588 5589 5589 5589 5589 5588 5588 5589 5589 5590 5589 5589 5589 5589 5589 5589 5589 5590 5590 5590 5590 5591 5592 5592 5594 5596 5596 5597 5599 5600 5600 5600 5601 5602 5604 5605 5608 5610 5609 5611 5614 5617 5620 5622 5623 5625 5629 5631 5633
5602 5599 5597 5595 5594 5593 5592 5591 5591 5590 5589 5588 5587 5586 5585 5585 5585 5585 5585 5585 5585 5585 5585 5586 5586 5586 5586 5586 5586 5585 5585 5585 5586 5586 5586 5586 5587 5587 5589 5590 5591 5592 5592 5593 5594 5595 5596 5597 5599 5600 5605 5609 5610 5612 5615 5616 5618 5621 5623 5625 5628 5631 5632
5601 5599 5598 5596 5594 5593 5592 5591 5589 5589 5587 5585 5585 5584 5583 5583 5583 5583 5583 5583 5582 5581 5582 5581 5582 5582 5583 5583 5583 5582 5582 5582 5582 5582 5582 5581 5582 5584 5585 5586 5588 5588 5589 5588 5588 5590 5591 5593 5594 5596 5601 5605 5604 5607 5613 5615 5617 5620 5623 5626 5628 5632 5633
5601 5599 5598 5596 5594 5593 5592 5590 5589 5588 5587 5584 5583 5582 5582 5581 5581 5581 5580 5580 5580 5579 5578 5578 5578 5578 5579 5580 5580 5579 5579 5578 5578 5578 5578 5578 5578 5580 5581 5582 5584 5584 5585 5585 5585 5586 5587 5588 5590 5592 5595 5599 5600 5603 5609 5613 5616 5617 5620 5626 5628 5630 5632
5600 5598 5597 5597 5595 5593 5592 5590 5588 5588 5586 5584 5584 5582 5580 5579 5578 5578 5577 5577 5577 5576 5576 5575 5575 5576 5576 5578 5577 5576 5576 5576 5575 5575 5575 5575 5575 5575 5577 5578 5580 5580 5581 5582 5583 5585 5585 5585 5586 5587 5589 5591 5596 5601 5606 5610 5613 5614 5616 5620 5625 5627 5628
5598 5597 5596 5596 5595 5592 5591 5590 5588 5587 5586 5585 5583 5581 5579 5577 5577 5576 5575 5575 5574 5573 5574 5573 5574 5574 5574 5575 5574 5573 5573 5573 5573 5573 5572 5572 5572 5572 5573 5574 5576 5577 5577 5578 5580 5581 5583 5583 5584 5584 5585 5586 5590 5595 5601 5604 5607 5611 5614 5615 5618 5623 5626
5595 5595 5595 5594 5593 5592 5590 5589 5587 5586 5585 5584 5582 5580 5577 5576 5576 5574 5574 5573 5572 5571 5571 5571 5572 5572 5571 5572 5572 5571 5571 5571 5571 5571 5571 5571 5570 5571 5571 5571 5573 5574 5574 5575 5576 5577 5579 5580 5582 5584 5584 5585 5585 5587 5592 5596 5600 5605 5609 5610 5611 5615 5620
5593 5593 5593 5592 5591 5590 5589 5588 5586 5585 5583 5583 5581 5579 5577 5575 5574 5573 5572 5572 5570 5569 5569 5569 5569 5569 5570 5570 5570 5569 5568 5569 5569 5569 5569 5569 5569 5569 5569 5569 5571 5572 5572 5572 5573 5574 5575 5577 5579 5581 5584 5585 5585 5584 5585 5588 5593 5598 5602 5604 5606 5609 5613
5592 5592 5592 5591 5590 5588 5587 5587 5586 5584 5583 5582 5580 5578 5576 5575 5573 5572 5571 5570 5569 5568 5567 5567 5567 5567 5567 5567 5566 5566 5566 5566 5566 5566 5566 5566 5566 5566 5566 5566 5568 5570 5570 5570 5571 5572 5573 5574 5575 5578 5580 5582 5583 5583 5583 5583 5586 5592 5596 5598 5601 5604 5606
5591 5591 5591 5590 5588 5587 5586 5585 5584 5584 5583 5581 5579 5578 5576 5574 5573 5571 5570 5569 5568 5567 5566 5566 5565 5565 5565 5565 5564 5564 5563 5563 5564 5564 5563 5563 5563 5564 5563 5563 5565 5566 5566 5568 5569 5570 5571 5571 5572 5574 5576 5578 5580 5580 5581 5582 5584 5589 5593 5594 5594 5597 5600
5589 5589 5589 5588 5587 5586 5585 5584 5584 5584 5582 5581 5579 5577 5575 5574 5572 5571 5569 5568 5567 5566 5565 5564 5564 5564 5564 5563 5563 5562 5561 5561 5561 5561 5560 5560 5559 5560 5561 5561 5562 5562 5562 5563 5565 5567 5568 5569 5569 5571 5572 5574 5577 5577 5578 5580 5582 5585 5589 5591 5592 5594 5596
5587 5587 5586 5585 5585 5584 5584 5584 5583 5582 5581 5580 5579 5577 5576 5574 5572 5570 5568 5567 5566 5565 5563 5563 5562 5562 5561 5561 5560 5560 5559 5559 5559 5558 5557 5557 5557 5556 5556 5557 5558 5558 5558 5558 5559 5562 5564 5565 5566 5569 5570 5571 5573 5575 5576 5576 5579 5581 5584 5586 5587 5589 5592
5586 5585 5584 5583 5583 5582 5583 5583 5582 5581 5580 5579 5578 5577 5577 5575 5572 5570 5568 5567 5566 5564 5563 5562 5560 5560 5560 5559 5558 5557 5557 5556 5556 5555 5554 5555 5556 5554 5553 5554 5554 5555 5554 5555 5555 5557 5559 5560 5562 5564 5566 5567 5568 5570 5571 5572 5574 5576 5578 5580 5582 5584 5587
5583 5583 5582 5582 5581 5581 5580 5581 5580 5579 5578 5578 5577 5576 5576 5574 5572 5571 5569 5567 5566 5564 5563 5562 5560 5559 5558 5557 5556 5555 5554 5554 5553 5552 5552 5551 5551 5551 5551 5551 5552 5552 5552 5551 5552 5554 5555 5556 5557 5559 5561 5562 5564 5565 5566 5567 5568 5571 5574 5576 5578 5580 5582
5578 5579 5579 5578 5579 5578 5578 5577 5578 5577 5576 5576 5575 5574 5573 5572 5570 5570 5569 5567 5566 5564 5564 5562 5560 5558 5557 5556 5555 5553 5552 5551 5550 5549 5548 5548 5547 5547 5547 5548 5549 5549 5549 5549 5550 5551 5552 5552 5552 5554 5556 5558 5561 5562 5563 5564 5565 5567 5569 5572 5574 5576 5576
5575 5576 5575 5575 5575 5576 5576 5576 5576 5575 5574 5574 5573 5572 5570 5568 5568 5568 5568 5567 5566 5565 5564 5562 5560 5558 5556 5554 5552 5550 5549 5548 5547 5547 5546 5546 5545 5544 5544 5544 5545 5544 5545 5545 5546 5546 5547 5547 5548 5549 5550 5552 5554 5556 5558 5559 5561 5562 5564 5567 5570 5572 5573
5573 5573 5573 5573 5574 5574 5574 5574 5574 5573 5573 5572 5570 5569 5567 5566 5566 5566 5566 5566 5565 5563 5562 5559 5558 5556 5553 5551 5549 5548 5547 5545 5544 5544 5543 5542 5542 5541 5541 5540 5541 5541 5541 5541 5542 5542 5543 5543 5544 5545 5545 5546 5548 5549 5551 5553 5556 5558 5560 5563 5566 5568 5570
5568 5568 5569 5570 5571 5571 5571 5571 5571 5570 5569 5569 5568 5567 5566 5565 5564 5564 5564 5564 5563 5561 5559 5556 5554 5552 5549 5547 5545 5544 5544 5542 5541 5540 5538 5538 5538 5536 5537 5536 5536 5536 5536 5536 5536 5536 5537 5538 5539 5541 5542 5543 5543 5544 5546 5548 5551 5554 5556 5559 5562 5564 5567
5563 5564 5565 5567 5567 5568 5568 5568 5567 5566 5564 5564 5564 5564 5564 5564 5563 5562 5561 5559 5558 5557 5556 5553 5551 5547 5545 5543 5541 5540 5540 5538 5537 5535 5534 5534 5534 5533 5533 5532 5532 5532 5530 5529 5529 5529 5529 5530 5531 5534 5536 5538 5539 5540 5541 5544 5546 5549 5553 5555 5559 5561 5563
5559 5560 5562 5563 5564 5565 5565 5564 5563 5561 5561 5560 5559 5559 5561 5561 5560 5558 5556 5554 5552 5550 5550 5548 5546 5543 5540 5539 5537 5536 5535 5533 5532 5531 5531 5530 5529 5529 5529 5528 5528 5527 5525 5523 5523 5523 5523 5523 5524 5526 5528 5530 5532 5534 5536 5538 5541 5544 5547 5551 5554 5557 5559
5555 5556 5558 5559 5559 5560 5561 5560 5558 5557 5558 5558 5556 5555 5556 5556 5555 5554 5552 5550 5547 5543 5542 5541 5540 5537 5535 5533 5532 5530 5529 5528 5527 5527 5526 5526 5525 5525 5525 5525 5525 5524 5522 5521 5521 5520 5520 5519 5519 5520 5521 5523 5523 5524 5526 5529 5533 5537 5540 5544 5549 5552 5554
5550 5551 5553 5554 5555 5555 5556 5556 5555 5554 5555 5554 5552 5552 5551 5551 5551 5549 5548 5546 5543 5539 5537 5534 5532 5530 5529 5526 5524 5523 5522 5522 5522 5521 5521 5521 5521 5521 5521 5521 5520 5519 5519 5518 5518 5517 5517 5518 5517 5517 5517 5517 5517 5517 5517 5519 5523 5526 5530 5535 5541 5545 5548
5544 5546 5547 5548 5549 5550 5550 5550 5550 5551 5551 5550 5550 5548 5547 5546 5546 5545 5544 5541 5537 5535 5531 5527 5525 5523 5521 5518 5516 5515 5515 5515 5514 5515 5515 5514 5514 5514 5514 5515 5514 5515 5514 5514 5513 5513 5515 5516 5516 5515 5514 5514 5514 5514 5513 5513 5514 5516 5519 5524 5530 5536 5539
5537 5539 5541 5542 5543 5543 5544 5545 5545 5545 5546 5546 5546 5544 5542 5541 5541 5540 5538 5535 5533 5530 5525 5520 5518 5515 5512 5509 5507 5508 5509 5508 5507 5507 5507 5506 5506 5506 5507 5508 5508 5509 5509 5509 5509 5509 5510 5511 5511 5512 5512 5513 5514 5514 5513 5512 5511 5510 5511 5514 5519 5525 5527
5530 5531 5533 5535 5536 5537 5538 5539 5539 5540 5541 5541 5541 5540 5538 5537 5536 5534 5532 5529 5527 5524 5517 5513 5511 5508 5504 5502 5500 5501 5503 5501 5500 5500 5500 5499 5499 5500 5500 5501 5501 5502 5503 5503 5503 5502 5502 5502 5504 5505 5506 5508 5510 5511 5512 5513 5512 5511 5510 5512 5514 5517 5519
5522 5524 5526 5527 5529 5530 5531 5532 5533 5534 5535 5535 5536 5535 5534 5532 5530 5527 5524 5522 5520 5515 5507 5504 5503 5500 5497 5495 5494 5496 5497 5496 5495 5495 5494 5494 5494 5495 5495 5495 5495 5495 5496 5496 5496 5494 5492 5492 5494 5496 5499 5501 5504 5506 5508 5508 5507 5507 5507 5508 5510 5511 5512
5516 5517 5519 5520 5522 5523 5525 5525 5527 5527 5528 5529 5530 5528 5528 5526 5523 5519 5516 5515 5512 5505 5498 5495 5495 5492 5490 5489 5489 5491 5492 5490 5490 5490 5488 5488 5489 5490 5490 5489 5488 5488 5488 5489 5488 5485 5483 5483 5485 5488 5491 5495 5497 5500 5503 5502 5502 5502 5501 5501 5502 5502 5503
5510 5511 5512 5514 5515 5517 5518 5519 5520 5521 5521 5523 5522 5521 5520 5518 5514 5511 5509 5506 5503 5497 5490 5487 5487 5485 5484 5483 5483 5484 5485 5484 5484 5484 5483 5483 5484 5484 5484 5482 5481 5480 5481 5481 5479 5477 5475 5475 5478 5481 5484 5487 5490 5493 5495 5495 5496 5498 5497 5496 5496 5495 5495
5503 5504 5506 5507 5508 5509 5511 5512 5513 5514 5515 5515 5516 5514 5512 5508 5504 5501 5499 5495 5493 5489 5483 5480 5479 5478 5476 5474 5474 5476 5477 5477 5477 5476 5477 5478 5478 5478 5478 5477 5476 5475 5474 5474 5472 5470 5468 5468 5470 5473 5475 5478 5481 5484 5485 5486 5488 5490 5490 5490 5491 5491 5491
5497 5498 5499 5501 5502 5504 5505 5505 5506 5506 5506 5507 5506 5504 5500 5496 5493 5490 5488 5485 5482 5478 5476 5473 5471 5469 5467 5465 5465 5465 5466 5467 5468 5469 5470 5471 5471 5471 5472 5472 5472 5470 5469 5468 5465 5463 5461 5460 5461 5464 5466 5469 5472 5474 5475 5477 5478 5478 5478 5480 5482 5483 5484
5492 5493 5494 5495 5496 5498 5499 5499 5498 5496 5495 5494 5493 5489 5486 5484 5481 5478 5477 5476 5473 5471 5469 5466 5463 5461 5459 5457 5455 5455 5457 5460 5461 5461 5462 5463 5464 5466 5466 5467 5467 5465 5462 5461 5459 5456 5455 5454 5453 5455 5458 5460 5462 5462 5462 5464 5466 5465 5466 5469 5470 5472 5474
5486 5486 5487 5488 5489 5491 5492 5491 5489 5486 5484 5482 5479 5476 5474 5472 5470 5467 5467 5467 5465 5463 5461 5459 5456 5453 5450 5449 5447 5446 5449 5451 5451 5451 5453 5456 5458 5459 5460 5461 5460 5458 5455 5453 5451 5450 5449 5448 5447 5449 5451 5451 5451 5450 5449 5451 5454 5455 5456 5458 5460 5462 5465
5478 5479 5480 5482 5482 5483 5484 5482 5478 5476 5474 5472 5469 5465 5463 5462 5459 5457 5456 5457 5456 5454 5452 5450 5448 5445 5443 5441 5440 5440 5441 5441 5441 5442 5445 5448 5450 5452 5453 5454 5453 5450 5447 5446 5445 5444 5444 5443 5443 5444 5444 5443 5442 5441 5440 5442 5444 5445 5447 5449 5451 5454 5458
5473 5474 5476 5476 5476 5476 5475 5471 5468 5467 5466 5463 5460 5457 5455 5454 5452 5449 5448 5448 5448 5447 5445 5443 5440 5438 5437 5436 5435 5434 5434 5433 5433 5434 5436 5439 5441 5443 5444 5444 5443 5441 5440 5440 5440 5439 5439 5438 5438 5439 5439 5437 5436 5435 5435 5437 5438 5438 5440 5442 5444 5447 5450